Theta_e
313 312 312 312 312 311 310 312 311 309 309 308 305 305 306 305 305 304 308 310 310 312 314 317 318 319 319 321 321 320 324 328 330 333 334 331 330 331 328 327 328 337 343 355 356
312 312 313 312 312 312 313 312 312 311 310 309 307 305 305 305 308 311 311 309 307 307 312 316 318 319 320 321 322 322 323 328 326 329 330 330 328 328 328 328 329 335 346 353 354
311 312 312 312 312 312 312 313 313 311 311 310 308 307 306 304 312 312 311 309 306 306 311 315 317 319 321 321 323 324 328 326 323 325 323 327 329 326 326 330 330 331 340 349 350
311 311 311 310 311 312 313 312 313 312 311 310 309 307 307 311 317 314 310 309 307 305 311 315 317 319 322 323 324 327 327 327 324 322 321 324 327 327 326 327 326 326 326 341 348
310 311 311 310 310 310 312 312 312 311 311 310 310 308 309 313 313 311 310 312 309 306 311 315 316 318 321 322 325 328 329 328 327 326 324 326 327 325 326 326 325 325 325 327 346
310 310 309 310 309 309 311 311 311 311 310 310 310 309 311 315 312 312 316 318 313 308 311 314 316 317 319 321 326 327 329 329 329 328 328 328 328 325 325 327 326 326 325 327 331
310 310 310 309 308 308 309 310 311 310 310 310 310 310 312 313 311 312 316 319 313 311 312 314 316 316 318 322 325 328 330 328 329 329 330 326 329 329 324 324 324 325 325 326 327
309 309 309 309 308 307 308 309 310 309 309 309 310 311 313 315 313 313 312 320 313 312 313 315 316 316 317 323 325 328 329 332 330 329 328 327 332 330 327 325 325 326 326 325 325
308 308 308 309 308 307 308 309 309 310 309 310 311 312 316 316 314 313 317 320 314 313 314 314 315 316 318 322 326 325 331 327 325 322 325 328 333 329 326 322 324 326 327 326 324
308 307 307 308 307 307 308 308 310 312 310 311 313 312 314 315 315 314 318 318 314 314 313 313 315 317 321 320 322 321 327 326 323 319 322 327 330 326 326 324 323 323 325 325 325
308 308 307 307 307 306 307 312 314 313 313 317 316 316 316 318 315 317 316 316 314 312 314 314 316 317 318 319 320 321 321 321 320 321 320 319 320 322 323 323 323 324 326 328 327
307 307 307 307 306 306 307 312 315 317 319 317 317 315 317 316 317 316 314 313 313 314 316 315 316 317 318 319 319 320 320 320 321 319 320 320 320 320 321 322 322 323 323 324 324
306 307 307 306 306 307 309 312 312 314 318 319 318 316 318 317 318 315 313 314 315 315 316 316 316 317 317 318 320 320 320 320 320 321 320 320 321 321 321 321 322 322 324 326 326
307 307 307 306 310 313 313 314 313 314 322 321 319 316 317 316 319 315 314 315 315 316 316 316 317 316 317 318 320 321 320 320 320 321 321 320 320 321 321 321 322 322 325 325 327
307 306 306 305 309 313 317 316 314 315 324 322 318 317 317 316 319 316 314 316 316 316 317 317 317 317 318 318 319 320 321 320 321 322 321 320 319 319 323 321 322 323 326 327 327
306 306 306 307 310 313 316 313 315 322 328 319 318 319 319 318 319 316 315 316 316 317 317 318 317 319 320 320 320 320 320 321 320 321 322 322 322 321 322 323 323 325 325 326 326
305 305 306 308 316 314 316 315 320 325 323 320 319 319 320 320 319 317 318 319 319 319 319 320 319 320 320 320 320 320 321 322 322 321 322 323 323 323 324 322 327 327 326 325 325
303 306 312 312 315 314 313 317 326 320 324 321 319 320 321 320 320 318 318 320 321 320 320 320 321 319 319 320 320 320 322 323 323 323 321 323 323 326 326 326 325 326 326 326 326
304 315 318 314 316 315 316 322 323 325 324 324 319 322 322 321 319 319 319 320 321 321 321 320 321 320 321 321 322 322 322 323 325 325 325 324 329 328 326 326 326 326 326 326 325
305 315 319 316 317 318 320 322 321 323 321 323 323 321 322 321 320 320 320 320 320 321 322 322 322 321 321 321 321 323 323 324 324 326 325 323 325 325 327 327 326 326 324 324 324
311 320 321 317 317 318 322 320 320 322 320 322 325 321 321 321 321 319 320 319 320 321 321 323 323 323 322 322 322 323 326 323 324 323 324 326 327 329 328 328 327 325 324 324 324
312 322 321 317 320 320 321 320 319 321 321 320 322 325 323 322 321 320 320 319 318 320 321 323 323 328 324 322 323 325 321 323 327 327 327 328 328 326 327 328 326 325 324 323 322
311 317 319 317 322 323 322 321 320 318 322 321 321 324 326 324 323 322 324 322 320 321 321 323 325 330 327 325 323 324 325 325 326 328 329 328 328 326 326 327 326 325 323 322 321
312 320 321 319 320 322 322 321 319 318 319 321 323 322 326 325 325 325 325 322 321 321 320 322 323 326 328 327 325 323 322 323 324 331 328 326 326 327 325 325 323 322 321 321 319
315 318 318 321 320 318 322 318 317 319 319 320 322 324 324 325 324 324 323 321 321 318 321 322 325 326 325 322 322 324 324 324 325 325 328 324 322 322 321 320 318 317 318 318 318
311 312 312 317 318 319 319 318 316 318 320 320 320 323 324 327 327 326 324 323 323 321 322 324 327 326 325 321 320 320 319 319 320 320 320 320 319 319 317 317 318 319 319 318 318
309 308 310 316 318 316 320 319 318 318 319 318 319 322 323 323 323 324 323 323 323 324 324 324 325 325 324 321 319 319 318 318 317 317 317 318 318 320 320 319 319 319 319 318 318
Wind_Speed
17 17 16 15 14 14 14 14 14 14 12 13 12 12 13 12 12 16 22 14 23 27 22 22 25 23 18 19 17 16 10 15 20 23 10 9 9 10 6 10 5 8 8 17 19
18 17 15 15 15 13 13 14 13 14 11 12 12 10 12 8 12 23 24 23 25 30 18 23 30 27 26 25 24 19 14 17 8 1 9 8 9 5 5 12 10 8 4 9 14
19 17 14 15 15 13 12 14 13 13 12 11 11 11 9 4 13 18 17 19 22 22 21 22 28 29 29 28 31 26 19 20 7 2 16 19 9 4 9 7 2 8 4 8 12
19 17 15 14 15 14 12 12 13 13 12 12 10 11 7 2 5 5 5 9 21 26 26 20 31 35 29 27 31 23 26 27 6 5 13 19 25 10 11 14 9 2 5 8 12
18 16 16 15 14 13 13 12 13 13 12 12 10 10 4 9 21 12 13 9 15 31 31 29 28 36 27 27 30 26 16 29 31 11 16 12 22 16 18 14 12 13 9 10 14
17 18 16 15 14 13 13 13 13 13 14 13 10 10 7 17 8 9 9 12 21 33 31 37 28 31 30 30 21 20 21 19 22 23 13 15 17 19 27 20 16 15 16 11 10
17 18 18 16 15 14 14 14 13 13 15 13 11 6 15 24 6 6 3 12 22 32 32 34 31 27 30 25 27 26 20 22 21 18 14 12 21 13 24 18 19 19 16 15 11
18 18 17 17 16 15 14 15 13 14 16 11 7 6 11 5 13 13 12 12 20 25 27 28 33 30 34 19 29 19 16 18 21 19 10 11 25 27 25 28 27 22 20 17 15
19 18 18 17 17 15 12 13 13 13 10 7 5 6 11 5 15 12 13 17 23 23 27 22 29 23 33 18 17 19 20 24 17 18 10 11 18 17 25 27 23 22 23 19 16
20 20 20 17 18 15 11 9 8 7 7 7 5 6 15 16 15 18 13 16 27 25 23 21 18 19 18 17 19 21 23 19 22 15 15 13 18 19 18 27 17 19 22 17 17
20 21 22 20 15 16 12 6 4 4 14 13 13 11 10 8 16 18 16 21 26 28 19 23 16 22 29 26 23 23 23 24 13 16 18 16 17 16 16 26 17 21 21 22 18
21 21 23 18 21 20 13 12 11 6 12 27 22 18 9 12 16 17 24 21 25 22 22 18 22 22 20 19 22 22 12 20 7 12 17 16 18 18 16 28 21 24 22 14 8
21 21 22 24 22 20 18 21 13 8 9 15 26 23 14 16 19 22 27 20 23 23 24 19 22 20 20 22 20 19 16 15 15 19 19 18 20 18 20 17 18 11 1 6 7
22 23 21 25 12 6 13 13 19 4 6 14 19 13 21 18 18 25 27 16 15 22 24 18 19 24 20 22 20 16 14 19 13 14 13 16 8 16 19 17 14 14 13 11 4
23 23 25 21 12 9 6 5 10 8 7 23 22 16 22 25 24 26 26 18 19 17 15 17 19 23 19 18 17 20 20 15 11 14 13 19 8 13 22 18 20 14 3 6 4
25 25 28 16 11 8 6 11 12 6 7 12 15 20 23 26 22 28 28 24 22 18 18 20 21 14 17 19 19 22 5 12 15 14 14 17 12 11 18 20 20 13 9 5 4
28 27 23 14 3 16 13 14 5 7 8 17 21 24 22 20 20 23 24 20 17 17 17 13 13 15 16 18 15 17 13 10 10 11 11 21 17 7 12 13 21 17 13 10 7
29 18 11 8 12 17 17 7 9 7 8 11 19 22 21 24 20 23 23 20 20 19 15 14 16 20 11 15 14 21 18 12 11 13 15 8 7 9 12 12 12 14 10 8 7
26 7 6 15 17 21 13 4 4 5 2 6 18 22 20 23 18 20 23 22 21 18 14 16 15 16 17 17 17 15 18 19 10 10 4 10 12 9 14 12 12 12 11 7 4
24 10 12 19 21 18 9 4 4 5 5 10 14 21 23 23 18 24 22 23 23 19 19 11 9 15 11 12 13 12 13 9 7 8 11 8 15 8 19 15 14 12 10 7 5
12 6 8 15 18 16 9 6 8 5 6 3 10 13 17 20 17 21 19 15 20 18 14 10 10 11 14 14 14 12 11 11 11 10 10 10 6 14 13 15 13 14 11 7 4
9 4 10 21 11 13 13 7 4 4 8 5 6 15 13 20 18 17 16 9 11 13 14 9 9 13 18 16 5 12 19 14 8 12 8 7 5 4 2 12 15 14 11 2 3
11 8 7 20 8 12 12 6 2 2 6 5 5 11 19 15 13 12 11 6 8 9 15 8 6 9 5 8 9 10 10 6 5 1 9 8 5 7 2 6 6 6 7 8 4
9 3 7 18 21 12 7 3 1 8 13 5 7 11 18 15 9 13 15 6 11 10 4 2 5 11 5 1 8 16 15 9 11 6 9 14 10 13 9 6 8 9 9 12 7
7 4 8 2 5 7 6 3 3 5 15 19 7 16 14 12 11 14 13 10 8 7 7 6 7 7 2 6 1 11 12 14 16 15 13 9 8 2 5 2 6 10 11 11 11
10 7 11 18 4 8 5 4 4 14 8 9 9 13 11 16 14 17 17 16 16 12 11 10 6 14 18 7 8 9 10 11 12 12 11 10 11 7 7 5 6 3 2 7 6
13 11 9 8 3 2 8 8 8 6 7 11 11 12 8 12 10 11 11 10 16 15 10 9 5 6 11 6 4 8 14 15 12 11 9 10 7 6 2 4 5 5 5 7 8
Wind_Direction
332 327 327 321 317 314 307 307 314 312 322 319 305 288 274 267 270 261 239 218 220 219 220 202 217 222 227 232 235 225 243 237 236 245 216 167 218 199 260 270 262 207 40 90 143
324 322 319 313 310 307 307 309 311 310 316 319 311 297 283 283 277 261 247 232 227 223 217 206 208 210 222 226 220 231 225 231 347 94 303 300 240 59 262 217 221 215 145 134 153
323 323 321 311 307 303 301 301 304 310 309 312 311 302 289 305 293 268 244 243 227 230 211 216 213 209 218 222 216 218 236 243 91 77 316 307 257 244 273 264 213 19 158 170 175
321 318 321 321 311 303 295 294 296 303 306 305 305 295 294 246 258 148 243 220 219 207 204 207 213 215 217 221 219 220 226 235 213 283 289 301 322 269 254 268 328 262 306 268 201
322 320 319 319 315 306 291 288 289 300 302 300 292 291 294 239 247 272 288 283 228 199 200 202 214 216 214 222 224 219 224 223 231 262 269 282 293 296 287 279 278 285 268 254 218
326 322 320 315 314 308 296 285 285 299 302 296 279 273 241 255 243 231 256 240 207 195 198 201 210 216 216 221 221 219 228 245 208 228 266 275 264 293 285 257 267 259 257 241 232
326 321 317 316 312 306 297 284 285 298 298 289 263 242 249 240 223 230 274 225 192 189 198 202 201 211 219 217 219 222 219 238 220 229 249 265 251 244 273 271 268 272 259 242 228
325 320 316 316 312 306 298 290 291 294 291 271 233 226 259 253 244 248 239 203 186 191 198 201 204 214 216 210 219 218 236 220 212 214 212 235 241 235 275 296 274 258 252 238 231
331 325 322 316 312 306 299 299 303 301 266 208 175 220 260 233 220 209 196 189 178 187 200 198 207 229 211 215 189 218 214 216 230 166 184 210 235 250 263 271 266 258 245 237 227
334 329 323 317 311 305 298 302 315 10 135 155 223 243 250 225 183 176 179 178 172 174 195 206 200 217 216 209 212 210 221 237 221 162 207 210 232 235 265 271 262 246 260 234 235
328 329 323 315 305 301 299 307 222 198 204 208 202 230 141 131 164 169 164 158 168 173 186 188 214 207 201 211 219 220 217 222 218 178 198 221 248 238 218 262 271 265 237 252 260
325 324 324 316 308 294 266 228 254 322 270 229 234 231 255 165 165 165 160 163 176 182 184 185 215 201 212 222 223 246 209 219 161 217 192 204 233 251 227 231 207 248 235 213 228
324 323 321 318 312 289 244 238 245 306 260 221 212 220 207 196 178 165 174 174 183 190 197 195 198 216 214 211 219 223 230 216 206 197 198 204 220 212 237 239 256 225 270 165 223
324 324 319 320 320 281 260 255 227 254 266 167 191 211 213 194 180 176 180 171 196 197 198 209 209 203 204 216 217 213 213 226 207 188 213 216 226 213 215 213 245 223 207 207 194
324 322 318 312 272 255 306 195 172 189 232 153 166 183 185 197 156 179 190 186 190 208 197 208 215 190 212 211 201 234 194 225 225 200 243 178 235 258 185 207 202 203 221 202 163
322 320 313 311 277 199 238 144 142 233 229 154 154 174 165 205 164 169 191 204 204 201 205 215 194 202 205 210 192 229 157 205 215 232 221 225 209 229 181 207 191 159 166 213 126
323 319 296 267 272 174 172 150 207 248 155 153 172 177 177 190 178 171 188 198 197 201 192 218 196 200 213 205 187 218 204 196 195 218 233 208 206 210 163 179 147 156 169 154 150
326 316 279 244 186 175 149 211 233 181 268 162 179 183 186 186 178 174 188 194 218 206 184 198 184 203 189 224 195 207 215 234 190 198 213 171 193 127 127 125 127 150 152 159 163
331 337 223 169 174 163 184 215 258 336 284 278 189 189 193 181 168 186 194 203 201 201 213 198 197 172 198 220 202 194 228 246 311 279 268 159 108 126 152 153 152 162 168 153 163
331 301 237 186 171 187 233 248 213 257 341 291 232 195 189 182 176 188 194 200 193 206 234 201 152 166 183 237 238 279 207 216 230 271 233 235 182 207 169 163 168 161 170 166 186
327 236 182 176 173 193 226 237 259 154 173 247 280 228 207 193 188 194 193 184 202 185 229 238 190 197 164 211 206 211 243 212 252 216 225 246 86 106 156 159 164 179 158 184 221
299 238 176 167 193 216 231 197 323 200 180 207 290 275 232 196 204 206 197 150 207 179 197 219 221 181 200 200 265 289 209 222 223 248 269 302 115 81 72 153 170 182 167 214 304
293 262 188 178 227 231 228 151 139 229 229 181 277 253 231 190 202 198 94 65 154 217 201 187 227 168 208 181 219 238 225 271 292 267 255 245 238 11 142 138 141 260 241 202 237
289 258 182 204 242 276 223 202 345 228 255 219 261 288 201 169 156 181 146 149 174 208 26 247 229 232 234 349 252 210 232 237 254 226 247 256 229 197 161 188 206 231 263 282 293
280 329 340 234 268 303 196 146 353 248 220 215 234 238 176 178 178 200 165 157 160 160 197 195 224 261 79 239 139 200 209 221 228 231 231 259 267 190 65 347 294 289 290 284 273
334 352 336 295 319 293 261 153 162 260 249 193 241 201 216 192 186 171 156 166 178 177 181 204 182 238 184 178 247 249 244 243 224 233 243 252 261 296 289 314 262 260 267 281 269
344 329 301 279 201 174 265 169 175 231 296 243 281 141 185 263 270 165 127 155 167 172 179 191 175 212 242 136 264 254 235 231 232 235 246 253 261 70 154 257 275 280 289 278 267